User: anonymous   Login
Location: Shell Point
(30.0571°N, 84.2896°W)
Time: 23:28:59
(UTC-04:00)
Language:

Meteor 2-19 Rocket - Orbit

View from above orbital plane
View from above orbital plane
View from above satellite
View from above satellite

Ground track
Ground track

The orbit data is extracted from the following two-line orbital elements,

1 20671U 90057B   17177.68658226 +.00000012 +00000-0 -23537-5 0  9992
2 20671 082.5462 004.5639 0013960 292.4093 067.5588 13.84608455364376
Epoch (UTC): 26 June 2017 16:28:40
Eccentricity: 0.0013960
inclination: 82.5462°
perigee height: 937 km
apogee height: 958 km
right ascension of ascending node: 4.5639°
argument of perigee: 292.4093°
revolutions per day: 13.84608455
mean anomaly at epoch: 67.5588°
orbit number at epoch: 36437

The dashed part of the orbit path shows where the satellite is in the earth's shadow,  

DLR